Regional Weather Roundup
Issued by NWS

Home | Current Version | Previous Version | Text Only | Print | Product List | Glossary On
Versions: 1 2 3 4 5 6 7 8 9 10 11 12 13 14 15 16 17 18 19 20 21 22 23 24 25 26 27 28 29 30 31 32 33 34 35 36 37 38 39 40 41 42 43 44 45 46 47 48 49 50
000
ASHW40 PHFO 181732
RWRHI

WEATHER ROUNDUP FOR HAWAII
NATIONAL WEATHER SERVICE HONOLULU HI
700 AM HST MON DEC 18 2017

THIS IS AN AUTOMATED REPORT THAT HAS NOT BEEN QUALITY CONTROLLED.

NOTE..."FAIR" INDICATES FEW OR NO CLOUDS BELOW 12,000 FEET WITH NO
SIGNIFICANT WEATHER AND/OR OBSTRUCTIONS TO VISIBILITY.

* - THESE SITES REPORT LIMITED FIELDS
# - BUOY DATA PROVIDED BY PACIFIC ISLANDS OCEAN OBSERVING SYSTEM.

HIZ001>004-181800-
KAUAI-NIIHAU-

CITY           SKY/WX    TMP DP  RH WIND       PRES   REMARKS
LIHUE APT      PTCLDY    61  61 100 W8        29.94R
PORT ALLEN*      N/A     64 N/A N/A NE8         N/A
POIPU*           N/A     59 N/A N/A N3          N/A
PRINCEVILLE*   NOT AVBL
KOKOLE POINT*  NOT AVBL
MOLOAA DAIRY*    N/A     64  64 100 W1          N/A
WAIMEA HTS*    NOT AVBL
PUU OPAE*      NOT AVBL
PUU LUA*       NOT AVBL
MAKAHA RIDGE*    N/A     61  59  94 CALM        N/A
$$

HIZ005>011-181800-
OAHU-

CITY           SKY/WX    TMP DP  RH WIND       PRES   REMARKS
HONOLULU       PTCLDY    68  61  78 N3        29.93R
KALAELOA       CLEAR     63  60  90 NE5       29.94R
KANEOHE MCB    CLEAR     68  65  90 S3        29.91R
WHEELER FIELD  FAIR      61  60  95 CALM      29.96R
BELLOWS*         N/A    N/A N/A N/A W3          N/A
KAHUKU*          N/A    N/A N/A N/A NE1         N/A
WHEELER*       NOT AVBL
WAIANAE HARBOR NOT AVBL
DILLINGHAM*    NOT AVBL
KAHUKU TRN*      N/A     75  73  94 N2          N/A
KAWAILOA*        N/A     64  57  77 E5          N/A
KII*             N/A     64  61  88 S3          N/A
MAKUA RANGE*     N/A     64  57  77 NW6G12      N/A
OAHU FOREST NW NOT AVBL
SCHOFIELD BRK*   N/A     61  59  94 MISG        N/A
SCHOFIELD S*   NOT AVBL
WAIANAE VLY*   NOT AVBL
KUAOKALA*      NOT AVBL
HONOULIUULI*   NOT AVBL
MOKUOLOE IS*   NOT AVBL
PALEHUA*       NOT AVBL
WAIAWA PHB*    NOT AVBL
$$

HIZ012>013-181800-
MOLOKAI-

CITY           SKY/WX    TMP DP  RH WIND       PRES   REMARKS
MOLOKAI AIRPT  MOCLDY    65  65 100 CALM      29.95R
KALAUPAPA      NOT AVBL
MAKAPULAPAI*     N/A     66  64  94 S3          N/A
MOLOKAI 1*     NOT AVBL
PUU ALII*        N/A     54  53  96 SE2         N/A
$$

HIZ016-181800-
KAHOOLAWE-

CITY           SKY/WX    TMP DP  RH WIND       PRES   REMARKS
KAHOOLAWE*     NOT AVBL
HAKIOAWA*        N/A     70  68  94 MISG      30.36R
HONOKANAIA*    NOT AVBL
KANELOA*         N/A     72  66  83 NE5G12    29.98
KEALIALALO*    NOT AVBL
LUA MAKIKA*    NOT AVBL
$$

HIZ014>015-181800-
LANAI-

CITY           SKY/WX    TMP DP  RH WIND       PRES   REMARKS
LANAI CITY     CLOUDY    66  63  90 E3        29.99R
LANAI 1*       NOT AVBL
$$

HIZ017>028-181800-
MAUI-

CITY           SKY/WX    TMP DP  RH WIND       PRES   REMARKS
KAHULUI        PTCLDY    65  64  97 SE3       29.93R
KAPALUA-W MAUI MOCLDY    68  63  83 CALM      29.95R
HANA AIRPORT   FOG       66  66 100 S2        29.97R VSB 1/2
HANA*            N/A     68 N/A N/A S2          N/A
HALEAKALA SUMM   N/A     43  43 100 SW15        N/A
MAALAEA BAY*     N/A     66 N/A N/A NE3         N/A
HALEAKALA*     NOT AVBL
KAUPO GAP*     NOT AVBL
KULA 1*          N/A     53  52  95 SE5G12      N/A
$$

HIZ023>026-181800-
BIG ISLAND OF HAWAII COAST AND LOWER SLOPES-

CITY           SKY/WX    TMP DP  RH WIND       PRES   REMARKS
KAILUA KONA    MOCLDY    72  64  76 NE3       29.91R
HILO           CLEAR     67  62  84 SW5       29.94R
HONOKAA*         N/A     63 N/A N/A VRB1        N/A
KAWAIHAE MWT*    N/A     72 N/A N/A E1          N/A
KAWAIHAE*        N/A     73 N/A N/A NE2       29.92R
SOUTH POINT*     N/A     70 N/A N/A NW10        N/A
UPOLU AIRPORT* NOT AVBL
KAMUELA*       NOT AVBL
HAKALAU*         N/A     46  41  81 SW8         N/A
KALOKO-HONOKO*   N/A     72  64  78 NE2         N/A
PALI 2*          N/A     63  63 100 W2          N/A
KEALAKOMO*       N/A     73  70  88 N3          N/A
KAUPULEHU*     NOT AVBL
KAPAPALA*        N/A     62  60  94 N3          N/A
LOWER KAHUKU*    N/A     57  57 100 N2          N/A
PUHE CS*         N/A     72  61  68 NE3         N/A
PUHO CS*         N/A     68  60  74 E2          N/A
PTA KEAMUKU*     N/A     61  55  82 SE7         N/A
WAIKOLOA*      NOT AVBL
$$

HIZ027>028-181800-
BIG ISLAND OF HAWAII INTERIOR AND SUMMMITS-

CITY           SKY/WX    TMP DP  RH WIND       PRES   REMARKS
BRADSHAW FIELD NOT AVBL
MK VISITOR CEN   N/A     48  36  61 NW6         N/A
MAUNA KEA*       N/A     28  27  93 SW43        N/A  WCI  10
MAUNA LOA*       N/A     39  10  30 MISG        N/A
MAUNA LOA 1*   NOT AVBL
PTA KIPUKA*      N/A     72  68  88 NW2         N/A
PTA RANGE 17*    N/A     70  63  78 W6G12       N/A
PTA WEST*        N/A     52  46  82 SE10        N/A
NENE CABIN*      N/A     48  48 100 N5          N/A
AHUMOA*        NOT AVBL
PTA PORTABLE*  NOT AVBL
PUU MALI*        N/A     54  45  71 SE5         N/A
$$

HIC003-181800-
NORTHWEST ISLANDS-

CITY           SKY/WX    TMP DP  RH WIND       PRES   REMARKS
MIDWAY ISLAND  CLOUDY    66  59  77 E23G31    30.17S
MIDWAY NOS*      N/A     68 N/A N/A MISG      30.15S
FRENCH FRIGATE NOT AVBL
$$

PHZ110>124-180-181800-
BUOY REPORTS

STATION/POSITION TIME  TEMP    WIND        PRES    WAVE   SWELL
                       AIR SEA DIR/SP/G            HT/PER HT/DIR
                 (UTC) (F)     (DEG/KT/KT) (MB)    (FT/S) (FT/D)
BUOY 51001       1710   73 76   30/  8/ 14 1013.3
BUOY 51101       1650   72 75   30/ 10/ 12 1013.7R  10/11  10/340
BUOY 51100       NOT AVBL
BUOY 51002       1710   78 78   90/ 14/ 16 1012.2
BUOY 51003       1650   75 77   40/ 10/ 12 1012.3    7/ 9   7/ 70
BUOY 51004       1710   78 79   90/ 14/ 16 1013.5
WAIMEA BAY#      1702      75                N/A     6/13   3/330
MOKAPU POINT#    1704      76                N/A     6/ 9   3/100
LANAI#           NOT AVBL
BARBERS PT 2#    NOT AVBL
PAUWELA#         1700      77                N/A     7/10   3/ 90
HILO#            1657      76                N/A     8/10   3/ 90
KANEOHE BAY#     NOT AVBL
KANEOHE BAY 2#   NOT AVBL
HANALEI#         1652      76                N/A     7/11   5/ 60
KAHULUI HARBOR   1700   68 76   CALM  /  2 1013.7
HONOLULU HARBOR  1700   69 77   60/  1/  2 1014.3
PEARL HARBOR#    1700      77                N/A     2/ 9   2/150
KILO NALU        NOT AVBL
HILO HARBOR      1700   69 76  200/  5/  7 1013.5
MOKUOLOE         1636   67 73  210/  2/  3 1013.6R
NAWILIWILI       1700   64     290/  5/  6 1013.9
WHOTS BUOY       NOT AVBL
BUOY 51028       NOT AVBL
$$

......................KEY........................................
  SKY/WX - SKY CONDITIONS/PRESENT WEATHER
  TMP    - TEMPERATURE IN FAHRENHEIT
  DWPT   - DEWPOINT IN FAHRENHEIT
  RH     - RELATIVE HUMIDITY IN PERCENT
  WIND   - DIRECTION AND SPEED /MPH FOR ISLANDS...KTS FOR BUOYS/
  PRES   - MEAN SEA LEVEL PRESSURE IN INCHES OF HG
  VSB    - VISIBILITY IN MILES
  HX     - HEAT INDEX
  WCI    - WIND CHILL INDEX
  VRB    - VARIABLE WIND DIRECTION
  N/A    - NOT AVAILABLE




USA.gov is the U.S. government's official web portal to all federal, state and local government web resources and services.